FENGYUN 1C DEB, 36656

Orbit data source: Space-Track

FENGYUN 1C DEB, 36656 is space debris in SSO originally from a launch on Mon, 10 May 1999 UTC launched from the Taiyaun Space Center, China (TSC). Fengyun 1C debris stems from the Chinese weather satellite Fengyun-1C, which was intentionally destroyed by a Chinese anti-satellite missile in 2007. This event dramatically increased the amount of space debris, with thousands of trackable fragments posing hazards to satellites and human spaceflight. The Fengyun 1C debris cloud has become a focal point in discussions about space sustainability and the need for international regulations to prevent the creation of new debris.

Loading next visibility...
Identifier
36656, 1999-025DYA
Orbit
SSO
Country
Flag of CNCN / PRC
Related business
Manufacturer
Unknown
Mission
Spacecraft
Bus & Motor
Unknown
Mass
Unknown
Launch date (UTC)
1999-05-10 (27 years ago)
Launch vehicle
Unknown
Launch site
Taiyaun Space Center, China (TSC)
Object type
Payload
Rocket body
Debris
Shape & HBR
Unknown shape, 0.1 m
Radar Cross Section
Small (<0.1 m²)

Expand to show TLE details & history
Last TLE update: 1 month ago

TLE from 1 month ago
0 FENGYUN 1C DEB
1 36656U 99025DYA 26217.99291198  .00000805  00000-0  85150-3 0  9992
2 36656  97.4302 296.1415 0332643 249.5176 106.9971 13.54989988620449
Epoch: 2026-08-05T23:49Z
TLE epoch observation values (Epoch: 2026-08-05T23:49:47.595Z)
Latitude
-0.00001°
Longitude
-15.84616°
Altitude
1,136.511 km
Speed
7.245 km/s
True Right ascension
19h 44m 33s
True Declination
0° 00' 00"
Sunlit
Object was in full shadow at epoch
Visualization orbit readout
Latitude
Unknown
Longitude
Unknown
Altitude
Unknown
Speed
Unknown
Apparent Right ascension
Unknown
Apparent Declination
Unknown
Sunlit
N/A
Visualization observer readout
Local Sidereal Time
00:22:28
Azimuth
Unknown
Elevation
Unknown
Doppler factor
Unknown
Orbital elements
Apogee altitude
1,298.272 km
Perigee altitude
804.012 km
Semi-major axis
7,429.279 km
Eccentricity
0.03326
Inclination
97.4302°
RAAN
296.1415°
Arg. of periapsis
249.5176°
True anomaly
110.59624°
Mean anomaly
106.9971°
Eccentric anomaly
108.80131°
Mean motion
3.3894 °/min
Orbital period
106.21 mins
BSTAR
0.0008515
Loading maneuver chart data...
Computing Atmospheric mass density...

Documentation

Showing up to 5 results
|